• In Czech Republic
  • List of Countries
  • For 7 days
  • Water Temperature
  • Satellite Maps
  • Weather Map
  • Weather Widgets
  • user-avatar
    Login

    Hourly Weather Scandicci

    Today, 25 November, Saturday

    Time Temperature Precipitation Wind Pressure Humidity
    00:00 +12°C° 0 mm 1 mps 761 mmHg 94%
    01:00 +12°C° 0 mm 1 mps 761 mmHg 94%
    02:00 +12°C° 0 mm 1 mps 761 mmHg 95%
    03:00 +12°C° 0 mm 1 mps 760 mmHg 95%
    04:00 +12°C° 0 mm 1 mps 760 mmHg 95%
    05:00 +12°C° 0 mm 2 mps 759 mmHg 95%
    06:00 +12°C° 0 mm 2 mps 759 mmHg 95%
    07:00 +12°C° 0 mm 2 mps 759 mmHg 95%
    08:00 +13°C° 0 mm 2 mps 758 mmHg 92%
    09:00 +14°C° 0 mm 2 mps 758 mmHg 89%
    10:00 +13°C° 0 mm 3 mps 758 mmHg 86%
    11:00 +14°C° 0.1 mm 3 mps 757 mmHg 85%
    12:00 +14°C° 0.1 mm 3 mps 756 mmHg 84%
    13:00 +15°C° 0.1 mm 4 mps 756 mmHg 82%
    14:00 +15°C° 0.3 mm 4 mps 755 mmHg 84%
    15:00 +15°C° 0.3 mm 4 mps 754 mmHg 85%
    16:00 +15°C° 0.3 mm 4 mps 753 mmHg 86%
    17:00 +14°C° 0.3 mm 4 mps 753 mmHg 87%
    18:00 +14°C° 0.3 mm 3 mps 753 mmHg 88%
    19:00 +14°C° 0.3 mm 3 mps 752 mmHg 90%
    20:00 +14°C° 0.5 mm 3 mps 752 mmHg 90%
    21:00 +14°C° 0.5 mm 3 mps 752 mmHg 91%
    22:00 +14°C° 0.5 mm 3 mps 752 mmHg 91%
    23:00 +13°C° 0.1 mm 3 mps 752 mmHg 88%

    Tomorrow, 26 November, Sunday

    Time Temperature Precipitation Wind Pressure Humidity
    00:00 +12°C° 0.1 mm 3 mps 752 mmHg 85%
    01:00 +11°C° 0.1 mm 4 mps 752 mmHg 81%
    02:00 +11°C° 0 mm 3 mps 752 mmHg 81%
    03:00 +10°C° 0 mm 3 mps 752 mmHg 80%
    04:00 +10°C° 0 mm 3 mps 751 mmHg 79%
    05:00 +10°C° 0.1 mm 3 mps 752 mmHg 80%
    06:00 +10°C° 0.1 mm 3 mps 752 mmHg 81%
    07:00 +10°C° 0.1 mm 2 mps 752 mmHg 82%
    08:00 +10°C° 0.7 mm 3 mps 752 mmHg 81%
    09:00 +10°C° 0.7 mm 3 mps 753 mmHg 80%
    10:00 +10°C° 0.7 mm 3 mps 753 mmHg 79%
    11:00 +8°C° 1.2 mm 4 mps 754 mmHg 79%
    12:00 +8°C° 1.2 mm 5 mps 754 mmHg 79%
    13:00 +7°C° 1.2 mm 5 mps 755 mmHg 79%
    14:00 +7°C° 1 mm 6 mps 755 mmHg 79%
    15:00 +5°C° 1 mm 6 mps 756 mmHg 80%
    16:00 +5°C° 1 mm 6 mps 756 mmHg 80%
    17:00 +5°C° 0.2 mm 6 mps 757 mmHg 79%
    18:00 +5°C° 0.2 mm 6 mps 758 mmHg 78%
    19:00 +5°C° 0.2 mm 6 mps 758 mmHg 77%
    20:00 +5°C° 0 mm 5 mps 759 mmHg 78%
    21:00 +5°C° 0 mm 5 mps 760 mmHg 78%
    22:00 +5°C° 0 mm 4 mps 761 mmHg 78%
    23:00 +4°C° 0 mm 4 mps 761 mmHg 78%

    Day after tomorrow, 27 November, Monday

    Time Temperature Precipitation Wind Pressure Humidity
    00:00 +4°C° 0 mm 3 mps 762 mmHg 78%
    01:00 +4°C° 0 mm 3 mps 762 mmHg 78%
    02:00 +3°C° 0 mm 3 mps 762 mmHg 78%
    03:00 +4°C° 0 mm 2 mps 763 mmHg 78%
    04:00 +4°C° 0 mm 2 mps 763 mmHg 78%
    05:00 +3°C° 0 mm 2 mps 763 mmHg 79%
    06:00 +3°C° 0 mm 2 mps 763 mmHg 79%
    07:00 +3°C° 0 mm 2 mps 764 mmHg 79%
    08:00 +4°C° 0 mm 2 mps 764 mmHg 74%
    09:00 +6°C° 0 mm 2 mps 765 mmHg 69%
    10:00 +7°C° 0 mm 2 mps 765 mmHg 65%
    11:00 +8°C° 0 mm 2 mps 765 mmHg 62%
    12:00 +9°C° 0 mm 2 mps 765 mmHg 59%
    13:00 +9°C° 0 mm 2 mps 764 mmHg 56%
    14:00 +9°C° 0 mm 2 mps 764 mmHg 60%
    15:00 +8°C° 0 mm 2 mps 764 mmHg 63%
    16:00 +8°C° 0 mm 1 mps 764 mmHg 67%
    17:00 +7°C° 0 mm 1 mps 764 mmHg 71%
    18:00 +6°C° 0 mm 1 mps 764 mmHg 75%
    19:00 +5°C° 0 mm 1 mps 764 mmHg 78%
    20:00 +4°C° 0 mm 1 mps 764 mmHg 79%
    21:00 +4°C° 0 mm 1 mps 764 mmHg 79%
    22:00 +4°C° 0 mm 1 mps 764 mmHg 80%
    23:00 +4°C° 0 mm 1 mps 764 mmHg 79%

    28 November, Tuesday

    Time Temperature Precipitation Wind Pressure Humidity
    00:00 +3°C° 0 mm 1 mps 764 mmHg 78%
    01:00 +3°C° 0 mm 1 mps 763 mmHg 77%
    02:00 +3°C° 0 mm 1 mps 763 mmHg 76%
    03:00 +3°C° 0 mm 1 mps 763 mmHg 75%
    04:00 +3°C° 0 mm 1 mps 763 mmHg 74%
    05:00 +3°C° 0 mm 1 mps 762 mmHg 73%
    06:00 +3°C° 0 mm 1 mps 762 mmHg 72%
    07:00 +3°C° 0 mm 1 mps 762 mmHg 72%
    08:00 +4°C° 0 mm 1 mps 762 mmHg 67%
    09:00 +6°C° 0 mm 1 mps 762 mmHg 62%
    10:00 +7°C° 0 mm 0 mps 762 mmHg 57%
    11:00 +9°C° 0 mm 1 mps 761 mmHg 54%
    12:00 +10°C° 0 mm 1 mps 761 mmHg 52%
    13:00 +11°C° 0 mm 1 mps 760 mmHg 50%
    14:00 +10°C° 0 mm 1 mps 759 mmHg 56%
    15:00 +9°C° 0 mm 1 mps 759 mmHg 62%
    16:00 +8°C° 0 mm 1 mps 758 mmHg 68%
    17:00 +7°C° 0 mm 1 mps 758 mmHg 71%
    18:00 +7°C° 0 mm 1 mps 758 mmHg 74%
    19:00 +6°C° 0 mm 1 mps 758 mmHg 77%
    20:00 +6°C° 0 mm 1 mps 758 mmHg 78%
    21:00 +5°C° 0 mm 2 mps 757 mmHg 79%
    22:00 +5°C° 0 mm 2 mps 757 mmHg 80%
    23:00 +5°C° 0 mm 2 mps 757 mmHg 79%

    29 November, Wednesday

    Time Temperature Precipitation Wind Pressure Humidity
    00:00 +5°C° 0 mm 2 mps 756 mmHg 79%
    01:00 +5°C° 0 mm 2 mps 756 mmHg 78%
    02:00 +5°C° 0 mm 2 mps 755 mmHg 80%
    03:00 +6°C° 0 mm 2 mps 755 mmHg 81%
    04:00 +6°C° 0 mm 2 mps 754 mmHg 82%
    05:00 +6°C° 0.3 mm 2 mps 754 mmHg 83%
    06:00 +6°C° 0.3 mm 2 mps 753 mmHg 84%
    07:00 +7°C° 0.3 mm 3 mps 753 mmHg 85%
    08:00 +7°C° 0.7 mm 3 mps 753 mmHg 85%
    09:00 +7°C° 0.7 mm 3 mps 753 mmHg 86%
    10:00 +8°C° 0.7 mm 3 mps 753 mmHg 86%
    11:00 +9°C° 0.6 mm 3 mps 752 mmHg 85%
    12:00 +9°C° 0.6 mm 3 mps 752 mmHg 84%
    13:00 +10°C° 0.6 mm 3 mps 751 mmHg 83%
    14:00 +10°C° 0.5 mm 3 mps 751 mmHg 86%
    15:00 +10°C° 0.5 mm 3 mps 750 mmHg 89%
    16:00 +10°C° 0.5 mm 2 mps 750 mmHg 91%
    17:00 +9°C° 2.5 mm 2 mps 749 mmHg 93%
    18:00 +9°C° 2.5 mm 2 mps 748 mmHg 94%
    19:00 +9°C° 2.5 mm 2 mps 747 mmHg 95%
    20:00 +9°C° 5.3 mm 2 mps 746 mmHg 95%
    21:00 +9°C° 5.3 mm 2 mps 746 mmHg 95%
    22:00 +9°C° 5.3 mm 2 mps 745 mmHg 95%
    23:00 +9°C° 2.5 mm 2 mps 745 mmHg 95%

    30 November, Thursday

    Time Temperature Precipitation Wind Pressure Humidity
    00:00 +9°C° 2.5 mm 2 mps 744 mmHg 94%
    01:00 +9°C° 2.5 mm 2 mps 744 mmHg 94%
    02:00 +9°C° 0.1 mm 2 mps 744 mmHg 94%
    03:00 +10°C° 0.1 mm 1 mps 744 mmHg 94%
    04:00 +9°C° 0.1 mm 1 mps 744 mmHg 94%
    05:00 +9°C° 0 mm 1 mps 744 mmHg 94%
    06:00 +9°C° 0 mm 1 mps 744 mmHg 94%
    07:00 +8°C° 0 mm 1 mps 745 mmHg 94%
    08:00 +9°C° 0 mm 1 mps 745 mmHg 91%
    09:00 +10°C° 0 mm 1 mps 746 mmHg 88%
    10:00 +11°C° 0 mm 1 mps 746 mmHg 84%
    11:00 +11°C° 0 mm 1 mps 746 mmHg 81%
    12:00 +12°C° 0 mm 2 mps 746 mmHg 77%
    13:00 +12°C° 0 mm 2 mps 746 mmHg 73%
    14:00 +12°C° 0 mm 1 mps 746 mmHg 76%
    15:00 +11°C° 0 mm 1 mps 746 mmHg 78%
    16:00 +9°C° 0 mm 0 mps 746 mmHg 81%
    17:00 +10°C° 0.1 mm 1 mps 746 mmHg 83%
    18:00 +9°C° 0.1 mm 1 mps 747 mmHg 85%
    19:00 +8°C° 0.1 mm 1 mps 747 mmHg 87%
    20:00 +8°C° 0.1 mm 1 mps 747 mmHg 87%
    21:00 +8°C° 0.1 mm 1 mps 748 mmHg 87%
    22:00 +7°C° 0.1 mm 1 mps 748 mmHg 87%
    23:00 +7°C° 0 mm 1 mps 748 mmHg 86%
    Show more